Погода в Асанове

Казахстан     54°51′13″N   69°26′51″E
темп.,
°C
ветер,
м/с
пор.,
м/с
влажн.,
%
обл.,
%
осадки,
мм/ч
давл.,
гПа
погр.,
м
1 марта, пн
пн100:00−14всв61094100 0.9 1007313
03:00−14всв6995100 0.7 1007306
06:00−14св5895100 1.5 1007296
09:00−15св4795100 0.3 1009248
12:00−14ссв3494100 0.4 1011258
15:00−12с349198 0.1 1012388
18:00−13ссз349599 0.2 1014187
21:00−17ссз239899 0.1 101520
2 марта, вт
вт200:00−19сз229997 0.1 101720
03:00−20з2210095 0.0 101620
06:00−19з229897 0.1 101652
09:00−18юз2298100 0.2 101681
12:00−16юз239298 0.3 1015246
15:00−13юз3491100 0.1 1013384
18:00−15юз2395100 0.1 101338
21:00−18ююз349767 0.0 101340
3 марта, ср
ср300:00−17ююз469863 0.0 1013108
03:00−17ююз5109694 0.0 1012215
06:00−18ююз5129484 0.1 1012308
09:00−17ююз61195100 0.1 1010413
12:00−13ююз71192100 0.3 1010541
15:00−10юз71192100 0.3 1009623
18:00−9юз71394100 0.8 1008671
21:00−7ююз71394100 0.8 1007636
4 марта, чт
чт400:00−5юз71494100 1.1 1006657
03:00−4юз71395100 0.4 1004630
06:00−3ююз71395100 0.9 1003615
09:00−3ююз71395100 0.4 1002663
12:00−1ююз71197100 1.3 1000786
15:000юз712100100 0.9 999847
18:00−1з61096100 1.4 1001564
21:00−5з5119096 0.1 1003351
5 марта, пт
пт500:00−11зюз5109448 0.1 1006174
03:00−14зюз48930 0.0 1007138
06:00−15юз510930 0.0 1008157
09:00−12ююз7138933 0.0 1007329
12:00−9юз10168867 0.0 1005758
15:00−7юз111988100 0.3 1005944
18:00−3юз111991100 0.5 10051196
21:00−2зюз101892100 0.3 10061005